sat.trackr.live / text

‹ back to catalog

STARLINK-34700

NORAD 64922 · 2025-157U

PAYLOAD ACTIVE UNKNOWN

§ Identity

Operator
Country
US
Launch date
2025-07-26
Launch site
AFETR
Launch vehicle
Mass (kg)
RCS (m²)

Purposes: comms

External: N2YO · Heavens-Above · Gunter

§ Orbital elements

Epoch: 2026-09-20T23:33:37.281600Z

Period
93.85 min
Inclination
53.1555°
Eccentricity
0.0001349
Mean motion
15.34406984 rev/d
Perigee alt
461.8 km
Apogee alt
463.6 km
Semi-major
6,840.8 km
B*
6.9373e-4
RAAN
155.7337°
Arg perigee
96.1480°
Mean anomaly
263.9676°
Rev number
6,601

§ Raw data

STARLINK-347001 64922U 25157U   26263.98168150  .00023140  00000+0  69373-3 0  99902 64922  53.1555 155.7337 0001349  96.1480 263.9676 15.34406984 66011

JSON: /api/v1/satellites/64922 · /tle

For live sub-satellite position, see the globe view (requires WebGL).

§ Visibility from observer

Set your observer location to see the next 7 days of passes ≥ 10°. The values pass through the URL so the page stays shareable.

No JS? Fill the form by hand. The geolocation button needs JavaScript.